Year,Month,Day,Hour,Minute,Value (Times are PST for temperature in C)
2019,10,19,00,00,10.10
2019,10,19,00,01,10.10
2019,10,19,00,02,10.10
2019,10,19,00,03,10.10
2019,10,19,00,04,10.10
2019,10,19,00,05,10.10
2019,10,19,00,06,10.10
2019,10,19,00,07,10.10
2019,10,19,00,08,10.10
2019,10,19,00,09,10.10
2019,10,19,00,10,10.10
2019,10,19,00,11,10.10
2019,10,19,00,12,10.10
2019,10,19,00,13,10.10
2019,10,19,00,14,10.00
2019,10,19,00,15,10.00
2019,10,19,00,16,10.00
2019,10,19,00,17,10.00
2019,10,19,00,18,10.00
2019,10,19,00,19,10.00
2019,10,19,00,20,10.00
2019,10,19,00,21,10.00
2019,10,19,00,22,10.00
2019,10,19,00,23,10.00
2019,10,19,00,24,10.00
2019,10,19,00,25,10.00
2019,10,19,00,26,10.00
2019,10,19,00,27,9.90
2019,10,19,00,28,9.90
2019,10,19,00,29,9.90
2019,10,19,00,30,9.90
2019,10,19,00,31,9.90
2019,10,19,00,32,9.90
2019,10,19,00,33,9.90
2019,10,19,00,34,9.90
2019,10,19,00,35,9.90
2019,10,19,00,36,9.90
2019,10,19,00,37,9.90
2019,10,19,00,38,9.90
2019,10,19,00,39,9.90
2019,10,19,00,40,9.90
2019,10,19,00,41,9.80
2019,10,19,00,42,9.80
2019,10,19,00,43,9.80
2019,10,19,00,44,9.80
2019,10,19,00,45,9.80
2019,10,19,00,46,9.80
2019,10,19,00,47,9.80
2019,10,19,00,48,9.80
2019,10,19,00,49,9.80
2019,10,19,00,50,9.80
2019,10,19,00,51,9.80
2019,10,19,00,52,9.80
2019,10,19,00,53,9.80
2019,10,19,00,54,9.80
2019,10,19,00,55,9.80
2019,10,19,00,56,9.80
2019,10,19,00,57,9.80
2019,10,19,00,58,9.80
2019,10,19,00,59,9.80
2019,10,19,01,00,9.80
2019,10,19,01,01,9.80
2019,10,19,01,02,9.80
2019,10,19,01,03,9.80
2019,10,19,01,04,9.80
2019,10,19,01,05,9.80
2019,10,19,01,06,9.80
2019,10,19,01,07,9.80
2019,10,19,01,08,9.80
2019,10,19,01,09,9.80
2019,10,19,01,10,9.80
2019,10,19,01,11,9.80
2019,10,19,01,12,9.80
2019,10,19,01,13,9.80
2019,10,19,01,14,9.80
2019,10,19,01,15,9.80
2019,10,19,01,16,9.80
2019,10,19,01,17,9.90
2019,10,19,01,18,9.90
2019,10,19,01,19,9.90
2019,10,19,01,20,9.90
2019,10,19,01,21,9.80
2019,10,19,01,22,9.80
2019,10,19,01,23,9.80
2019,10,19,01,24,9.80
2019,10,19,01,25,9.80
2019,10,19,01,26,9.80
2019,10,19,01,27,9.80
2019,10,19,01,28,9.80
2019,10,19,01,29,9.80
2019,10,19,01,30,9.70
2019,10,19,01,31,9.70
2019,10,19,01,32,9.70
2019,10,19,01,33,9.70
2019,10,19,01,34,9.70
2019,10,19,01,35,9.70
2019,10,19,01,36,9.70
2019,10,19,01,37,9.70
2019,10,19,01,38,9.70
2019,10,19,01,39,9.70
2019,10,19,01,40,9.70
2019,10,19,01,41,9.70
2019,10,19,01,42,9.70
2019,10,19,01,43,9.70
2019,10,19,01,44,9.70
2019,10,19,01,45,9.70
2019,10,19,01,46,9.70
2019,10,19,01,47,9.70
2019,10,19,01,48,9.70
2019,10,19,01,49,9.70
2019,10,19,01,50,9.70
2019,10,19,01,51,9.70
2019,10,19,01,52,9.70
2019,10,19,01,53,9.70
2019,10,19,01,54,9.70
2019,10,19,01,55,9.70
2019,10,19,01,56,9.70
2019,10,19,01,57,9.70
2019,10,19,01,58,9.70
2019,10,19,01,59,9.70
2019,10,19,02,00,9.70
2019,10,19,02,01,9.70
2019,10,19,02,02,9.70
2019,10,19,02,03,9.70
2019,10,19,02,04,9.70
2019,10,19,02,05,9.70
2019,10,19,02,06,9.60
2019,10,19,02,07,9.60
2019,10,19,02,08,9.60
2019,10,19,02,09,9.60
2019,10,19,02,10,9.60
2019,10,19,02,11,9.60
2019,10,19,02,12,9.60
2019,10,19,02,13,9.60
2019,10,19,02,14,9.60
2019,10,19,02,15,9.60
2019,10,19,02,16,9.60
2019,10,19,02,17,9.60
2019,10,19,02,18,9.60
2019,10,19,02,19,9.50
2019,10,19,02,20,9.50
2019,10,19,02,21,9.50
2019,10,19,02,22,9.50
2019,10,19,02,23,9.50
2019,10,19,02,24,9.50
2019,10,19,02,25,9.50
2019,10,19,02,26,9.50
2019,10,19,02,27,9.50
2019,10,19,02,28,9.50
2019,10,19,02,29,9.50
2019,10,19,02,30,9.50
2019,10,19,02,31,9.50
2019,10,19,02,32,9.50
2019,10,19,02,33,9.50
2019,10,19,02,34,9.50
2019,10,19,02,35,9.50
2019,10,19,02,36,9.50
2019,10,19,02,37,9.50
2019,10,19,02,38,9.50
2019,10,19,02,39,9.50
2019,10,19,02,40,9.50
2019,10,19,02,41,9.50
2019,10,19,02,42,9.40
2019,10,19,02,43,9.40
2019,10,19,02,44,9.40
2019,10,19,02,45,9.40
2019,10,19,02,46,9.40
2019,10,19,02,47,9.40
2019,10,19,02,48,9.40
2019,10,19,02,49,9.40
2019,10,19,02,50,9.40
2019,10,19,02,51,9.40
2019,10,19,02,52,9.40
2019,10,19,02,53,9.40
2019,10,19,02,54,9.40
2019,10,19,02,55,9.40
2019,10,19,02,56,9.40
2019,10,19,02,57,9.50
2019,10,19,02,58,9.50
2019,10,19,02,59,9.50
2019,10,19,03,00,9.50
2019,10,19,03,01,9.50
2019,10,19,03,02,9.50
2019,10,19,03,03,9.50
2019,10,19,03,04,9.50
2019,10,19,03,05,9.50
2019,10,19,03,06,9.50
2019,10,19,03,07,9.50
2019,10,19,03,08,9.50
2019,10,19,03,09,9.50
2019,10,19,03,10,9.50
2019,10,19,03,11,9.50
2019,10,19,03,12,9.50
2019,10,19,03,13,9.50
2019,10,19,03,14,9.50
2019,10,19,03,15,9.60
2019,10,19,03,16,9.60
2019,10,19,03,17,9.60
2019,10,19,03,18,9.60
2019,10,19,03,19,9.60
2019,10,19,03,20,9.60
2019,10,19,03,21,9.60
2019,10,19,03,22,9.60
2019,10,19,03,23,9.50
2019,10,19,03,24,9.50
2019,10,19,03,25,9.50
2019,10,19,03,26,9.50
2019,10,19,03,27,9.60
2019,10,19,03,28,9.60
2019,10,19,03,29,9.60
2019,10,19,03,30,9.60
2019,10,19,03,31,9.60
2019,10,19,03,32,9.60
2019,10,19,03,33,9.60
2019,10,19,03,34,9.60
2019,10,19,03,35,9.60
2019,10,19,03,36,9.60
2019,10,19,03,37,9.60
2019,10,19,03,38,9.60
2019,10,19,03,39,9.60
2019,10,19,03,40,9.60
2019,10,19,03,41,9.60
2019,10,19,03,42,9.60
2019,10,19,03,43,9.60
2019,10,19,03,44,9.60
2019,10,19,03,45,9.60
2019,10,19,03,46,9.60
2019,10,19,03,47,9.60
2019,10,19,03,48,9.60
2019,10,19,03,49,9.60
2019,10,19,03,50,9.60
2019,10,19,03,51,9.60
2019,10,19,03,52,9.60
2019,10,19,03,53,9.60
2019,10,19,03,54,9.60
2019,10,19,03,55,9.60
2019,10,19,03,56,9.60
2019,10,19,03,57,9.60
2019,10,19,03,58,9.60
2019,10,19,03,59,9.60
2019,10,19,04,00,9.60
2019,10,19,04,01,9.60
2019,10,19,04,02,9.60
2019,10,19,04,03,9.60
2019,10,19,04,04,9.60
2019,10,19,04,05,9.60
2019,10,19,04,06,9.60
2019,10,19,04,07,9.60
2019,10,19,04,08,9.60
2019,10,19,04,09,9.60
2019,10,19,04,10,9.50
2019,10,19,04,11,9.50
2019,10,19,04,12,9.50
2019,10,19,04,13,9.50
2019,10,19,04,14,9.50
2019,10,19,04,15,9.50
2019,10,19,04,16,9.50
2019,10,19,04,17,9.50
2019,10,19,04,18,9.50
2019,10,19,04,19,9.50
2019,10,19,04,20,9.50
2019,10,19,09,08,9.20
2019,10,19,09,09,9.20
2019,10,19,09,10,9.20
2019,10,19,09,11,9.20
2019,10,19,09,12,9.20
2019,10,19,09,13,9.20
2019,10,19,09,14,9.20
2019,10,19,09,15,9.20
2019,10,19,09,16,9.20
2019,10,19,09,17,9.20
2019,10,19,09,18,9.20
2019,10,19,09,19,9.20
2019,10,19,09,20,9.30
2019,10,19,09,21,9.30
2019,10,19,09,22,9.30
2019,10,19,09,23,9.30
2019,10,19,09,24,9.30
2019,10,19,09,25,9.30
2019,10,19,09,26,9.30
2019,10,19,09,27,9.30
2019,10,19,09,28,9.30
2019,10,19,09,29,9.30
2019,10,19,09,30,9.40
2019,10,19,09,31,9.40
2019,10,19,09,32,9.40
2019,10,19,09,33,9.40
2019,10,19,09,34,9.40
2019,10,19,09,35,9.40
2019,10,19,09,36,9.40
2019,10,19,09,37,9.40
2019,10,19,09,38,9.50
2019,10,19,09,39,9.50
2019,10,19,09,40,9.50
2019,10,19,09,41,9.50
2019,10,19,09,42,9.50
2019,10,19,09,43,9.50
2019,10,19,09,44,9.50
2019,10,19,09,45,9.60
2019,10,19,09,46,9.60
2019,10,19,09,47,9.60
2019,10,19,09,48,9.60
2019,10,19,09,49,9.60
2019,10,19,09,50,9.60
2019,10,19,09,51,9.60
2019,10,19,09,52,9.60
2019,10,19,09,53,9.60
2019,10,19,09,54,9.60
2019,10,19,09,55,9.60
2019,10,19,09,56,9.60
2019,10,19,09,57,9.60
2019,10,19,09,58,9.60
2019,10,19,09,59,9.60
2019,10,19,10,00,9.60
2019,10,19,10,01,9.60
2019,10,19,10,02,9.60
2019,10,19,10,03,9.60
2019,10,19,10,04,9.60
2019,10,19,10,05,9.60
2019,10,19,10,06,9.60
2019,10,19,10,07,9.60
2019,10,19,10,08,9.60
2019,10,19,10,09,9.60
2019,10,19,10,10,9.60
2019,10,19,10,11,9.60
2019,10,19,10,12,9.60
2019,10,19,10,13,9.60
2019,10,19,10,14,9.60
2019,10,19,10,15,9.60
2019,10,19,10,16,9.60
2019,10,19,10,17,9.60
2019,10,19,10,18,9.60
2019,10,19,10,19,9.60
2019,10,19,10,20,9.70
2019,10,19,10,21,9.70
2019,10,19,10,22,9.70
2019,10,19,10,23,9.70
2019,10,19,10,24,9.70
2019,10,19,10,25,9.70
2019,10,19,10,26,9.70
2019,10,19,10,27,9.70
2019,10,19,10,28,9.70
2019,10,19,10,29,9.70
2019,10,19,10,30,9.70
2019,10,19,10,31,9.70
2019,10,19,10,32,9.70
2019,10,19,10,33,9.70
2019,10,19,10,34,9.80
2019,10,19,10,35,9.80
2019,10,19,10,36,9.80
2019,10,19,10,37,9.80
2019,10,19,10,38,9.80
2019,10,19,10,39,9.80
2019,10,19,10,40,9.80
2019,10,19,10,41,9.80
2019,10,19,10,42,9.80
2019,10,19,10,43,9.80
2019,10,19,10,44,9.80
2019,10,19,10,45,9.80
2019,10,19,10,46,9.80
2019,10,19,10,47,9.80
2019,10,19,10,48,9.80
2019,10,19,10,49,9.80
2019,10,19,10,50,9.80
2019,10,19,10,51,9.80
2019,10,19,10,52,9.80
2019,10,19,10,53,9.80
2019,10,19,10,54,9.80
2019,10,19,10,55,9.90
2019,10,19,10,56,9.90
2019,10,19,10,57,9.90
2019,10,19,10,58,9.90
2019,10,19,10,59,9.90
2019,10,19,11,00,9.90
2019,10,19,11,01,9.90
2019,10,19,11,02,9.90
2019,10,19,11,03,9.90
2019,10,19,11,04,9.90
2019,10,19,11,05,10.00
2019,10,19,11,06,10.00
2019,10,19,11,07,10.00
2019,10,19,11,08,10.00
2019,10,19,11,09,10.00
2019,10,19,11,10,10.00
2019,10,19,11,11,10.00
2019,10,19,11,12,10.00
2019,10,19,11,13,10.00
2019,10,19,11,14,10.00
2019,10,19,11,15,10.00
2019,10,19,11,16,10.00
2019,10,19,11,17,10.00
2019,10,19,11,18,10.00
2019,10,19,11,19,10.00
2019,10,19,11,20,10.00
2019,10,19,11,21,10.00
2019,10,19,11,22,10.00
2019,10,19,11,23,10.00
2019,10,19,11,24,10.00
2019,10,19,11,25,10.00
2019,10,19,11,26,10.00
2019,10,19,11,27,10.00
2019,10,19,11,28,10.00
2019,10,19,11,29,10.00
2019,10,19,11,30,9.90
2019,10,19,11,31,9.90
2019,10,19,11,32,9.90
2019,10,19,11,33,9.90
2019,10,19,11,34,9.90
2019,10,19,11,35,9.90
2019,10,19,11,36,9.90
2019,10,19,11,37,9.90
2019,10,19,11,38,9.90
2019,10,19,11,39,9.90
2019,10,19,11,40,9.90
2019,10,19,11,41,10.00
2019,10,19,11,42,10.00
2019,10,19,11,43,10.00
2019,10,19,11,44,10.00
2019,10,19,11,45,10.00
2019,10,19,11,46,10.00
2019,10,19,11,47,9.90
2019,10,19,11,48,10.00
2019,10,19,11,49,10.00
2019,10,19,11,50,10.00
2019,10,19,11,51,9.90
2019,10,19,11,52,9.90
2019,10,19,11,53,9.90
2019,10,19,11,54,9.90
2019,10,19,11,55,9.90
2019,10,19,11,56,9.90
2019,10,19,11,57,10.00
2019,10,19,11,58,10.00
2019,10,19,11,59,10.00
2019,10,19,12,00,10.00
2019,10,19,12,01,10.00
2019,10,19,12,02,10.00
2019,10,19,12,03,10.10
2019,10,19,12,04,10.10
2019,10,19,12,05,10.10
2019,10,19,12,06,10.10
2019,10,19,12,07,10.10
2019,10,19,12,08,10.10
2019,10,19,12,09,10.10
2019,10,19,12,10,10.10
2019,10,19,12,11,10.00
2019,10,19,12,12,10.00
2019,10,19,12,13,10.10
2019,10,19,12,14,10.00
2019,10,19,12,15,10.00
2019,10,19,12,16,10.10
2019,10,19,12,17,10.10
2019,10,19,12,18,10.10
2019,10,19,12,19,10.10
2019,10,19,12,20,10.10
2019,10,19,12,21,10.10
2019,10,19,12,22,10.10
2019,10,19,12,23,10.10
2019,10,19,12,24,10.10
2019,10,19,12,25,10.10
2019,10,19,12,26,10.10
2019,10,19,12,27,10.10
2019,10,19,12,28,10.10
2019,10,19,12,29,10.10
2019,10,19,12,30,10.10
2019,10,19,12,31,10.20
2019,10,19,12,32,10.20
2019,10,19,12,33,10.20
2019,10,19,12,34,10.20
2019,10,19,12,35,10.20
2019,10,19,12,36,10.20
2019,10,19,12,37,10.30
2019,10,19,12,38,10.30
2019,10,19,12,39,10.30
2019,10,19,12,40,10.30
2019,10,19,12,41,10.30
2019,10,19,12,42,10.40
2019,10,19,12,43,10.40
2019,10,19,12,44,10.40
2019,10,19,12,45,10.40
2019,10,19,12,46,10.40
2019,10,19,12,47,10.40
2019,10,19,12,48,10.40
2019,10,19,12,49,10.50
2019,10,19,12,50,10.50
2019,10,19,12,51,10.50
2019,10,19,12,52,10.60
2019,10,19,12,53,10.60
2019,10,19,12,54,10.60
2019,10,19,12,55,10.60
2019,10,19,12,56,10.70
2019,10,19,12,57,10.70
2019,10,19,12,58,10.70
2019,10,19,12,59,10.70
2019,10,19,13,00,10.70
2019,10,19,13,01,10.70
2019,10,19,13,02,10.70
2019,10,19,13,03,10.80
2019,10,19,13,04,10.80
2019,10,19,13,05,10.80
2019,10,19,13,06,10.80
2019,10,19,13,07,10.80
2019,10,19,13,08,10.90
2019,10,19,13,09,10.90
2019,10,19,13,10,11.00
2019,10,19,13,11,11.00
2019,10,19,13,12,11.10
2019,10,19,13,13,11.20
2019,10,19,13,14,11.20
2019,10,19,13,15,11.30
2019,10,19,13,16,11.40
2019,10,19,13,17,11.40
2019,10,19,13,18,11.50
2019,10,19,13,19,11.50
2019,10,19,13,20,11.60
2019,10,19,13,21,11.60
2019,10,19,13,22,11.60
2019,10,19,13,23,11.70
2019,10,19,13,24,11.70
2019,10,19,13,25,11.70
2019,10,19,13,26,11.80
2019,10,19,13,27,11.80
2019,10,19,13,28,11.80
2019,10,19,13,29,11.80
2019,10,19,13,30,11.80
2019,10,19,13,31,11.80
2019,10,19,13,32,11.80
2019,10,19,13,33,11.80
2019,10,19,13,34,11.80
2019,10,19,13,35,11.80
2019,10,19,13,36,11.80
2019,10,19,13,37,11.80
2019,10,19,13,38,11.80
2019,10,19,13,39,11.80
2019,10,19,13,40,11.80
2019,10,19,13,41,11.70
2019,10,19,13,42,11.70
2019,10,19,13,43,11.80
2019,10,19,13,44,11.80
2019,10,19,13,45,11.80
2019,10,19,13,46,11.80
2019,10,19,13,47,11.80
2019,10,19,13,48,11.80
2019,10,19,13,49,11.80
2019,10,19,13,50,11.80
2019,10,19,13,51,11.80
2019,10,19,13,52,11.80
2019,10,19,13,53,11.70
2019,10,19,13,54,11.70
2019,10,19,13,55,11.70
2019,10,19,13,56,11.70
2019,10,19,13,57,11.70
2019,10,19,13,58,11.70
2019,10,19,13,59,11.70
2019,10,19,14,00,11.70
2019,10,19,14,01,11.70
2019,10,19,14,02,11.70
2019,10,19,14,03,11.70
2019,10,19,14,04,11.70
2019,10,19,14,05,11.70
2019,10,19,14,06,11.60
2019,10,19,14,07,11.60
2019,10,19,14,08,11.70
2019,10,19,14,09,11.70
2019,10,19,14,10,11.60
2019,10,19,14,11,11.60
2019,10,19,14,12,11.60
2019,10,19,14,13,11.60
2019,10,19,14,14,11.60
2019,10,19,14,15,11.60
2019,10,19,14,16,11.60
2019,10,19,14,17,11.60
2019,10,19,14,18,11.60
2019,10,19,14,19,11.60
2019,10,19,14,20,11.60
2019,10,19,14,21,11.60
2019,10,19,14,22,11.60
2019,10,19,14,23,11.60
2019,10,19,14,24,11.60
2019,10,19,14,25,11.60
2019,10,19,14,26,11.60
2019,10,19,14,27,11.60
2019,10,19,14,28,11.60
2019,10,19,14,29,11.70
2019,10,19,14,30,11.70
2019,10,19,14,31,11.70
2019,10,19,14,32,11.70
2019,10,19,14,33,11.70
2019,10,19,14,34,11.70
2019,10,19,14,35,11.70
2019,10,19,14,36,11.70
2019,10,19,14,37,11.70
2019,10,19,14,38,11.70
2019,10,19,14,39,11.70
2019,10,19,14,40,11.70
2019,10,19,14,41,11.70
2019,10,19,14,42,11.70
2019,10,19,14,43,11.70
2019,10,19,14,44,11.70
2019,10,19,14,45,11.70
2019,10,19,14,46,11.70
2019,10,19,14,47,11.70
2019,10,19,14,48,11.70
2019,10,19,14,49,11.80
2019,10,19,14,50,11.80
2019,10,19,14,51,11.80
2019,10,19,14,52,11.80
2019,10,19,14,53,11.80
2019,10,19,14,54,11.80
2019,10,19,14,55,11.80
2019,10,19,14,56,11.80
2019,10,19,14,57,11.80
2019,10,19,14,58,11.80
2019,10,19,14,59,11.80
2019,10,19,15,00,11.80
2019,10,19,15,01,11.80
2019,10,19,15,02,11.80
2019,10,19,15,03,11.80
2019,10,19,15,04,11.80
2019,10,19,15,05,11.80
2019,10,19,15,06,11.80
2019,10,19,15,07,11.80
2019,10,19,15,08,11.90
2019,10,19,15,09,11.90
2019,10,19,15,10,11.80
2019,10,19,15,11,11.80
2019,10,19,15,12,11.80
2019,10,19,15,13,11.90
2019,10,19,15,14,11.90
2019,10,19,15,15,11.90
2019,10,19,15,16,11.90
2019,10,19,15,17,11.90
2019,10,19,15,18,11.90
2019,10,19,15,19,11.90
2019,10,19,15,20,11.90
2019,10,19,15,21,11.90
2019,10,19,15,22,11.90
2019,10,19,15,23,11.90
2019,10,19,15,24,11.90
2019,10,19,15,25,11.90
2019,10,19,15,26,11.90
2019,10,19,15,27,11.90
2019,10,19,15,28,11.90
2019,10,19,15,29,11.90
2019,10,19,15,30,11.90
2019,10,19,15,31,11.90
2019,10,19,15,32,11.80
2019,10,19,15,33,11.80
2019,10,19,15,34,11.80
2019,10,19,15,35,11.80
2019,10,19,15,36,11.80
2019,10,19,15,37,11.80
2019,10,19,15,38,11.80
2019,10,19,15,39,11.80
2019,10,19,15,40,11.80
2019,10,19,15,41,11.80
2019,10,19,15,42,11.80
2019,10,19,15,43,11.80
2019,10,19,15,44,11.80
2019,10,19,15,45,11.80
2019,10,19,15,46,11.80
2019,10,19,15,47,11.80
2019,10,19,15,48,11.80
2019,10,19,15,49,11.80
2019,10,19,15,50,11.80
2019,10,19,15,51,11.80
2019,10,19,15,52,11.80
2019,10,19,15,53,11.80
2019,10,19,15,54,11.80
2019,10,19,15,55,11.80
2019,10,19,15,56,11.80
2019,10,19,15,57,11.80
2019,10,19,15,58,11.80
2019,10,19,15,59,11.90
2019,10,19,16,00,11.90
2019,10,19,16,01,11.90
2019,10,19,16,02,11.90
2019,10,19,16,03,12.00
2019,10,19,16,04,12.00
2019,10,19,16,05,12.10
2019,10,19,16,06,12.10
2019,10,19,16,07,12.10
2019,10,19,16,08,12.10
2019,10,19,16,09,12.20
2019,10,19,16,10,12.20
2019,10,19,16,11,12.20
2019,10,19,16,12,12.30
2019,10,19,16,13,12.30
2019,10,19,16,14,12.30
2019,10,19,16,15,12.40
2019,10,19,16,16,12.40
2019,10,19,16,17,12.50
2019,10,19,16,18,12.50
2019,10,19,16,19,12.50
2019,10,19,16,20,12.50
2019,10,19,16,21,12.40
2019,10,19,16,22,12.40
2019,10,19,16,23,12.40
2019,10,19,16,24,12.30
2019,10,19,16,25,12.30
2019,10,19,16,26,12.30
2019,10,19,16,27,12.30
2019,10,19,16,28,12.30
2019,10,19,16,29,12.30
2019,10,19,16,30,12.30
2019,10,19,16,31,12.30
2019,10,19,16,32,12.30
2019,10,19,16,33,12.30
2019,10,19,16,34,12.30
2019,10,19,16,35,12.30
2019,10,19,16,36,12.30
2019,10,19,16,37,12.20
2019,10,19,16,38,12.20
2019,10,19,16,39,12.20
2019,10,19,16,40,12.20
2019,10,19,16,41,12.20
2019,10,19,16,42,12.20
2019,10,19,16,43,12.30
2019,10,19,16,44,12.30
2019,10,19,16,45,12.30
2019,10,19,16,46,12.30
2019,10,19,16,47,12.30
2019,10,19,16,48,12.30
2019,10,19,16,49,12.20
2019,10,19,16,50,12.20
2019,10,19,16,51,12.20
2019,10,19,16,52,12.20
2019,10,19,16,53,12.20
2019,10,19,16,54,12.20
2019,10,19,16,55,12.20
2019,10,19,16,56,12.20
2019,10,19,16,57,12.20
2019,10,19,16,58,12.20
2019,10,19,16,59,12.20
2019,10,19,17,00,12.20
2019,10,19,17,01,12.10
2019,10,19,17,02,12.10
2019,10,19,17,03,12.10
2019,10,19,17,04,12.10
2019,10,19,17,05,12.20
2019,10,19,17,06,12.20
2019,10,19,17,07,12.20
2019,10,19,17,08,12.10
2019,10,19,17,09,12.10
2019,10,19,17,10,12.10
2019,10,19,17,11,12.10
2019,10,19,17,12,12.10
2019,10,19,17,13,12.10
2019,10,19,17,14,12.00
2019,10,19,17,15,12.00
2019,10,19,17,16,12.00
2019,10,19,17,17,11.90
2019,10,19,17,18,11.90
2019,10,19,17,19,11.90
2019,10,19,17,20,11.90
2019,10,19,17,21,11.90
2019,10,19,17,22,11.90
2019,10,19,17,23,11.80
2019,10,19,17,24,11.80
2019,10,19,17,25,11.80
2019,10,19,17,26,11.80
2019,10,19,17,27,11.80
2019,10,19,17,28,11.70
2019,10,19,17,29,11.70
2019,10,19,17,30,11.70
2019,10,19,17,31,11.70
2019,10,19,17,32,11.70
2019,10,19,17,33,11.70
2019,10,19,17,34,11.70
2019,10,19,17,35,11.70
2019,10,19,17,36,11.60
2019,10,19,17,37,11.60
2019,10,19,17,38,11.60
2019,10,19,17,39,11.60
2019,10,19,17,40,11.60
2019,10,19,17,41,11.60
2019,10,19,17,42,11.60
2019,10,19,17,43,11.60
2019,10,19,17,44,11.60
2019,10,19,17,45,11.60
2019,10,19,17,46,11.60
2019,10,19,17,47,11.60
2019,10,19,17,48,11.60
2019,10,19,17,49,11.60
2019,10,19,17,50,11.50
2019,10,19,17,51,11.50
2019,10,19,17,52,11.50
2019,10,19,17,53,11.40
2019,10,19,17,54,11.40
2019,10,19,17,55,11.40
2019,10,19,17,56,11.40
2019,10,19,17,57,11.40
2019,10,19,17,58,11.30
2019,10,19,17,59,11.30
2019,10,19,18,00,11.30
2019,10,19,18,01,11.30
2019,10,19,18,02,11.30
2019,10,19,18,03,11.30
2019,10,19,18,04,11.30
2019,10,19,18,05,11.30
2019,10,19,18,06,11.30
2019,10,19,18,07,11.30
2019,10,19,18,08,11.30
2019,10,19,18,09,11.20
2019,10,19,18,10,11.20
2019,10,19,18,11,11.20
2019,10,19,18,12,11.20
2019,10,19,18,13,11.20
2019,10,19,18,14,11.20
2019,10,19,18,15,11.20
2019,10,19,18,16,11.20
2019,10,19,18,17,11.20
2019,10,19,18,18,11.20
2019,10,19,18,19,11.20
2019,10,19,18,20,11.20
2019,10,19,18,21,11.20
2019,10,19,18,22,11.20
2019,10,19,18,23,11.20
2019,10,19,18,24,11.20
2019,10,19,18,25,11.20
2019,10,19,18,26,11.20
2019,10,19,18,27,11.20
2019,10,19,18,28,11.20
2019,10,19,18,29,11.20
2019,10,19,18,30,11.20
2019,10,19,18,31,11.20
2019,10,19,18,32,11.20
2019,10,19,18,33,11.20
2019,10,19,18,34,11.20
2019,10,19,18,35,11.20
2019,10,19,18,36,11.20
2019,10,19,18,37,11.20
2019,10,19,18,38,11.20
2019,10,19,18,39,11.20
2019,10,19,18,40,11.20
2019,10,19,18,41,11.20
2019,10,19,18,42,11.20
2019,10,19,18,43,11.20
2019,10,19,18,44,11.20
2019,10,19,18,45,11.20
2019,10,19,18,46,11.20
2019,10,19,18,47,11.20
2019,10,19,18,48,11.20
2019,10,19,18,49,11.20
2019,10,19,18,50,11.20
2019,10,19,18,51,11.20
2019,10,19,18,52,11.20
2019,10,19,18,53,11.20
2019,10,19,18,54,11.20
2019,10,19,18,55,11.20
2019,10,19,18,56,11.20
2019,10,19,18,57,11.10
2019,10,19,18,58,11.10
2019,10,19,18,59,11.10
2019,10,19,19,00,11.10
2019,10,19,19,01,11.10
2019,10,19,19,02,11.10
2019,10,19,19,03,11.10
2019,10,19,19,04,11.10
2019,10,19,19,05,11.10
2019,10,19,19,06,11.10
2019,10,19,19,07,11.10
2019,10,19,19,08,11.10
2019,10,19,19,09,11.00
2019,10,19,19,10,11.00
2019,10,19,19,11,11.10
2019,10,19,19,12,11.10
2019,10,19,19,13,11.10
2019,10,19,19,14,11.10
2019,10,19,19,15,11.10
2019,10,19,19,16,11.10
2019,10,19,19,17,11.10
2019,10,19,19,18,11.10
2019,10,19,19,19,11.10
2019,10,19,19,20,11.10
2019,10,19,19,21,11.10
2019,10,19,19,22,11.10
2019,10,19,19,23,11.10
2019,10,19,19,24,11.10
2019,10,19,19,25,11.10
2019,10,19,19,26,11.10
2019,10,19,19,27,11.10
2019,10,19,19,28,11.10
2019,10,19,19,29,11.10
2019,10,19,19,30,11.10
2019,10,19,19,31,11.10
2019,10,19,19,32,11.10
2019,10,19,19,33,11.00
2019,10,19,19,34,11.00
2019,10,19,19,35,11.00
2019,10,19,19,36,11.00
2019,10,19,19,37,11.00
2019,10,19,19,38,11.00
2019,10,19,19,39,11.00
2019,10,19,19,40,11.00
2019,10,19,19,41,11.00
2019,10,19,19,42,11.00
2019,10,19,19,43,11.00
2019,10,19,19,44,11.00
2019,10,19,19,45,11.00
2019,10,19,19,46,10.90
2019,10,19,19,47,10.90
2019,10,19,19,48,10.90
2019,10,19,19,49,10.90
2019,10,19,19,50,10.90
2019,10,19,19,51,10.90
2019,10,19,19,52,10.90
2019,10,19,19,53,10.90
2019,10,19,19,54,10.90
2019,10,19,19,55,10.90
2019,10,19,19,56,10.90
2019,10,19,19,57,10.90
2019,10,19,19,58,10.90
2019,10,19,19,59,10.90
2019,10,19,20,00,10.90
2019,10,19,20,01,10.80
2019,10,19,20,02,10.80
2019,10,19,20,03,10.80
2019,10,19,20,04,10.80
2019,10,19,20,05,10.80
2019,10,19,20,06,10.80
2019,10,19,20,07,10.80
2019,10,19,20,08,10.80
2019,10,19,20,09,10.80
2019,10,19,20,10,10.80
2019,10,19,20,11,10.80
2019,10,19,20,12,10.80
2019,10,19,20,13,10.80
2019,10,19,20,14,10.80
2019,10,19,20,15,10.80
2019,10,19,20,16,10.80
2019,10,19,20,17,10.80
2019,10,19,20,18,10.80
2019,10,19,20,19,10.80
2019,10,19,20,20,10.80
2019,10,19,20,21,10.80
2019,10,19,20,22,10.80
2019,10,19,20,23,10.80
2019,10,19,20,24,10.80
2019,10,19,20,25,10.80
2019,10,19,20,26,10.80
2019,10,19,20,27,10.80
2019,10,19,20,28,10.80
2019,10,19,20,29,10.80
2019,10,19,20,30,10.80
2019,10,19,20,31,10.80
2019,10,19,20,32,10.70
2019,10,19,20,33,10.70
2019,10,19,20,34,10.70
2019,10,19,20,35,10.70
2019,10,19,20,36,10.70
2019,10,19,20,37,10.70
2019,10,19,20,38,10.70
2019,10,19,20,39,10.70
2019,10,19,20,40,10.70
2019,10,19,20,41,10.70
2019,10,19,20,42,10.70
2019,10,19,20,43,10.70
2019,10,19,20,44,10.70
2019,10,19,20,45,10.70
2019,10,19,20,46,10.70
2019,10,19,20,47,10.70
2019,10,19,20,48,10.70
2019,10,19,20,49,10.70
2019,10,19,20,50,10.70
2019,10,19,20,51,10.70
2019,10,19,20,52,10.70
2019,10,19,20,53,10.70
2019,10,19,20,54,10.70
2019,10,19,20,55,10.70
2019,10,19,20,56,10.70
2019,10,19,20,57,10.70
2019,10,19,20,58,10.70
2019,10,19,20,59,10.70
2019,10,19,21,00,10.70
2019,10,19,21,01,10.70
2019,10,19,21,02,10.70
2019,10,19,21,03,10.70
2019,10,19,21,04,10.70
2019,10,19,21,05,10.70
2019,10,19,21,06,10.70
2019,10,19,21,07,10.70
2019,10,19,21,08,10.70
2019,10,19,21,09,10.70
2019,10,19,21,10,10.70
2019,10,19,21,11,10.70
2019,10,19,21,12,10.70
2019,10,19,21,13,10.70
2019,10,19,21,14,10.70
2019,10,19,21,15,10.70
2019,10,19,21,16,10.70
2019,10,19,21,17,10.70
2019,10,19,21,18,10.70
2019,10,19,21,19,10.70
2019,10,19,21,20,10.70
2019,10,19,21,21,10.70
2019,10,19,21,22,10.60
2019,10,19,21,23,10.60
2019,10,19,21,24,10.60
2019,10,19,21,25,10.60
2019,10,19,21,26,10.60
2019,10,19,21,27,10.60
2019,10,19,21,28,10.60
2019,10,19,21,29,10.60
2019,10,19,21,30,10.60
2019,10,19,21,31,10.60
2019,10,19,21,32,10.60
2019,10,19,21,33,10.60
2019,10,19,21,34,10.60
2019,10,19,21,35,10.60
2019,10,19,21,36,10.60
2019,10,19,21,37,10.60
2019,10,19,21,38,10.60
2019,10,19,21,39,10.60
2019,10,19,21,40,10.60
2019,10,19,21,41,10.60
2019,10,19,21,42,10.60
2019,10,19,21,43,10.60
2019,10,19,21,44,10.60
2019,10,19,21,45,10.60
2019,10,19,21,46,10.60
2019,10,19,21,47,10.60
2019,10,19,21,48,10.60
2019,10,19,21,49,10.60
2019,10,19,21,50,10.60
2019,10,19,21,51,10.60
2019,10,19,21,52,10.60
2019,10,19,21,53,10.60
2019,10,19,21,54,10.60
2019,10,19,21,55,10.50
2019,10,19,21,56,10.50
2019,10,19,21,57,10.50
2019,10,19,21,58,10.50
2019,10,19,21,59,10.50
2019,10,19,22,00,10.50
2019,10,19,22,01,10.50
2019,10,19,22,02,10.50
2019,10,19,22,03,10.50
2019,10,19,22,04,10.50
2019,10,19,22,05,10.50
2019,10,19,22,06,10.50
2019,10,19,22,07,10.50
2019,10,19,22,08,10.50
2019,10,19,22,09,10.50
2019,10,19,22,10,10.40
2019,10,19,22,11,10.40
2019,10,19,22,12,10.40
2019,10,19,22,13,10.40
2019,10,19,22,14,10.40
2019,10,19,22,15,10.40
2019,10,19,22,16,10.40
2019,10,19,22,17,10.40
2019,10,19,22,18,10.40
2019,10,19,22,19,10.40
2019,10,19,22,20,10.30
2019,10,19,22,21,10.30
2019,10,19,22,22,10.30